TimeEET,TemperatureF,Dew PointF,Humidity,Sea Level PressureIn,VisibilityMPH,Wind Direction,Wind SpeedMPH,Gust SpeedMPH,PrecipitationIn,Events,Conditions,WindDirDegrees,DateUTC
12:00 AM,59.0,37.4,45,30.09,-9999.0,North,8.1,-,N/A,,Clear,10,2013-01-14 22:00:00
1:00 AM,57.2,37.4,48,30.09,-9999.0,North,6.9,-,N/A,,Clear,360,2013-01-14 23:00:00
2:00 AM,55,38,40,30.11,6,NNW,6.9,,,,,340,2013-01-15 00:00:00
2:00 AM,55.4,37.4,51,30.09,-9999.0,NNW,6.9,-,N/A,,Clear,340,2013-01-15 00:00:00
3:00 AM,53.6,37.4,54,30.09,-9999.0,NNW,5.8,-,N/A,,Clear,340,2013-01-15 01:00:00
4:00 AM,53.6,37.4,54,30.09,-9999.0,North,5.8,-,N/A,,Clear,360,2013-01-15 02:00:00
5:00 AM,51.8,37.4,58,30.09,-9999.0,North,8.1,-,N/A,,Clear,350,2013-01-15 03:00:00
6:00 AM,50.0,35.6,58,30.12,-9999.0,North,6.9,-,N/A,,Clear,360,2013-01-15 04:00:00
7:00 AM,50.0,33.8,54,30.12,-9999.0,North,6.9,-,N/A,,Clear,350,2013-01-15 05:00:00
8:00 AM,53,36,40,30.17,6,North,5.8,,,,Clear,0,2013-01-15 06:00:00
8:00 AM,51.8,35.6,54,30.15,-9999.0,North,5.8,-,N/A,,Clear,360,2013-01-15 06:00:00
9:00 AM,51.8,35.6,54,30.15,-9999.0,North,5.8,-,N/A,,Clear,360,2013-01-15 07:00:00
10:00 AM,62.6,41.0,45,30.12,-9999.0,North,9.2,-,N/A,,Clear,10,2013-01-15 08:00:00
11:00 AM,66.2,44.6,46,30.12,-9999.0,North,10.4,-,N/A,,Clear,10,2013-01-15 09:00:00
12:00 PM,71.6,44.6,38,30.06,-9999.0,North,11.5,-,N/A,,Clear,360,2013-01-15 10:00:00
1:00 PM,73.4,46.4,38,30.06,-9999.0,NNE,12.7,-,N/A,,Clear,30,2013-01-15 11:00:00
2:00 PM,75.2,44.6,34,30.04,-9999.0,North,9.2,-,N/A,,Clear,360,2013-01-15 12:00:00
3:00 PM,78.8,44.6,30,30.04,-9999.0,North,10.4,-,N/A,,Clear,360,2013-01-15 13:00:00
4:00 PM,78.8,44.6,30,30.04,-9999.0,North,9.2,-,N/A,,Clear,350,2013-01-15 14:00:00
5:00 PM,77.0,44.6,32,30.04,-9999.0,North,8.1,-,N/A,,Clear,350,2013-01-15 15:00:00
6:00 PM,73.4,44.6,36,30.06,-9999.0,NNW,6.9,-,N/A,,Clear,340,2013-01-15 16:00:00
7:00 PM,71.6,41.0,33,30.06,-9999.0,NNW,6.9,-,N/A,,Clear,340,2013-01-15 17:00:00
8:00 PM,68.0,39.2,35,30.09,-9999.0,NNW,8.1,-,N/A,,Clear,340,2013-01-15 18:00:00
9:00 PM,66.2,39.2,37,30.09,-9999.0,North,6.9,-,N/A,,Clear,350,2013-01-15 19:00:00
10:00 PM,64.4,39.2,40,30.09,-9999.0,North,5.8,-,N/A,,Clear,350,2013-01-15 20:00:00
11:00 PM,60.8,39.2,45,30.06,-9999.0,North,5.8,-,N/A,,Clear,350,2013-01-15 21:00:00